TimeCDT,TemperatureF,Dew PointF,Humidity,Sea Level PressureIn,VisibilityMPH,Wind Direction,Wind SpeedMPH,Gust SpeedMPH,PrecipitationIn,Events,Conditions,WindDirDegrees,DateUTC
12:17 AM,73.9,66.9,79,29.86,10.0,SSE,18.4,-,N/A,,Mostly Cloudy,160,2013-04-17 05:17:00
12:53 AM,73.9,66.9,79,29.85,10.0,SSE,13.8,25.3,N/A,,Mostly Cloudy,160,2013-04-17 05:53:00
1:08 AM,73.9,66.9,79,29.88,10.0,SSE,15.0,21.9,N/A,,Mostly Cloudy,160,2013-04-17 06:08:00
1:53 AM,73.0,66.9,81,29.85,10.0,SSE,13.8,-,N/A,,Mostly Cloudy,160,2013-04-17 06:53:00
2:53 AM,73.0,66.9,81,29.83,7.0,SSE,17.3,23.0,N/A,,Overcast,160,2013-04-17 07:53:00
3:53 AM,73.0,68.0,84,29.82,8.0,SSE,13.8,-,N/A,,Overcast,160,2013-04-17 08:53:00
4:35 AM,72.0,69.1,91,29.85,6.0,SSE,13.8,-,0.00,,Light Drizzle,150,2013-04-17 09:35:00
4:53 AM,73.0,69.1,87,29.83,7.0,SSE,15.0,-,0.00,,Overcast,160,2013-04-17 09:53:00
5:26 AM,73.9,69.1,85,29.84,7.0,SSE,17.3,-,N/A,,Overcast,150,2013-04-17 10:26:00
5:48 AM,73.4,69.8,88,29.83,7.0,SSE,17.3,-,N/A,,Overcast,150,2013-04-17 10:48:00
5:53 AM,73.9,69.1,85,29.81,6.0,SSE,18.4,-,N/A,,Haze,160,2013-04-17 10:53:00
6:32 AM,73.0,69.1,87,29.84,7.0,SSE,19.6,24.2,0.00,,Light Drizzle,160,2013-04-17 11:32:00
6:53 AM,73.0,69.1,87,29.82,7.0,SSE,18.4,-,0.00,,Overcast,160,2013-04-17 11:53:00
7:11 AM,73.0,69.1,87,29.85,6.0,SSE,18.4,24.2,N/A,,Overcast,160,2013-04-17 12:11:00
7:53 AM,73.9,68.0,82,29.83,7.0,SSE,20.7,27.6,N/A,,Mostly Cloudy,160,2013-04-17 12:53:00
8:17 AM,73.9,66.9,79,29.85,7.0,SSE,20.7,31.1,N/A,,Mostly Cloudy,160,2013-04-17 13:17:00
8:53 AM,75.2,66.2,73,29.84,10.0,SSE,19.6,33.4,N/A,,Mostly Cloudy,160,2013-04-17 13:53:00
9:12 AM,75.0,66.9,76,29.85,10.0,SSE,18.4,28.8,N/A,,Overcast,160,2013-04-17 14:12:00
9:53 AM,75.9,66.0,71,29.82,10.0,South,19.6,33.4,N/A,,Mostly Cloudy,170,2013-04-17 14:53:00
10:12 AM,75.9,66.0,71,29.84,10.0,SSE,23.0,29.9,N/A,,Overcast,160,2013-04-17 15:12:00
10:53 AM,77.0,66.0,69,29.81,10.0,South,21.9,29.9,N/A,,Mostly Cloudy,170,2013-04-17 15:53:00
11:09 AM,78.1,66.0,66,29.82,10.0,SSE,23.0,29.9,N/A,,Mostly Cloudy,160,2013-04-17 16:09:00
11:53 AM,80.1,66.0,62,29.78,10.0,South,24.2,33.4,N/A,,Mostly Cloudy,170,2013-04-17 16:53:00
12:53 PM,82.0,66.0,58,29.75,10.0,South,25.3,34.5,N/A,,Scattered Clouds,170,2013-04-17 17:53:00
1:53 PM,84.2,66.0,54,29.75,10.0,SSE,26.5,32.2,N/A,,Mostly Cloudy,150,2013-04-17 18:53:00
2:53 PM,84.0,66.0,55,29.70,10.0,SSE,26.5,32.2,N/A,,Mostly Cloudy,150,2013-04-17 19:53:00
3:53 PM,84.2,65.7,54,29.70,10.0,SSE,26.5,32.2,N/A,,Mostly Cloudy,150,2013-04-17 20:53:00
4:53 PM,82.0,64.9,56,29.66,10.0,South,16.1,27.6,N/A,,Overcast,170,2013-04-17 21:53:00
5:53 PM,82.0,64.9,56,29.64,10.0,SSE,20.7,29.9,N/A,,Mostly Cloudy,160,2013-04-17 22:53:00
6:53 PM,81.0,64.9,58,29.62,10.0,SSE,31.1,41.4,N/A,,Overcast,160,2013-04-17 23:53:00
7:53 PM,80.1,64.9,60,29.62,10.0,SSE,21.9,28.8,N/A,,Overcast,160,2013-04-18 00:53:00
8:53 PM,78.1,64.9,64,29.59,10.0,SSE,21.9,32.2,N/A,,Mostly Cloudy,160,2013-04-18 01:53:00
9:31 PM,78.1,66.9,68,29.62,10.0,SSE,21.9,34.5,N/A,,Mostly Cloudy,160,2013-04-18 02:31:00
9:53 PM,78.1,68.0,71,29.61,10.0,SSE,26.5,36.8,N/A,,Mostly Cloudy,160,2013-04-18 02:53:00
10:53 PM,77.0,69.1,76,29.60,10.0,South,25.3,34.5,N/A,,Overcast,170,2013-04-18 03:53:00
11:53 PM,77.0,69.1,76,29.60,10.0,South,21.9,31.1,N/A,,Overcast,170,2013-04-18 04:53:00